www.pogodaiklimat.ru

Погода и климат >> Архив погоды >> Россия >> Хабаровский край >> Сутур


ПОГОДА в Сутуре

  • Прогноз погоды в Сутуре
  • Монитор погоды в Сутуре

АРХИВ ПОГОДЫ в Сутуре

Время (UTC), дата Ветер
(напр.,м/с)
 
Видим.   Явления Облачность Т
(С)
Тd
(С)
f
(%)
Тe
(С)
Тes
(С)
Комфортность P
(гПа)
Po
(гПа)
Тmin
(С)
Tmax
(С)
R
(мм)
R24
(мм)
S
(см)
00 16.04 ЮВ 1 50 км 10/0
[Ac lent Ci fib]
+12.7 -6.0 27 +13 +17 996.2 955.7 0.0
03 16.04 Ю 7-13
{13}
50 км 10/0
[Ac lent Ci fib]
+18.7 -9.3 14 +18 +20 992.0 952.4
06 16.04 Ю 7-13
{16}
50 км 10/0
[Ac As]
+18.8 -7.5 16 +18 +19 989.6 950.3
09 16.04 З 5
{14}
50 км 10/6 600 м
[Cb cap Ac lent]
+11.6 -5.6 30 +10 +10 994.2 953.6 +20.2
12 16.04 З 4 20 км 10/0
[Cs]
+6.9 -6.1 39 +4 +4 1001.1 959.5
15 16.04 СЗ 1 20 км 10/0
[Ac lent Ci fib]
+3.6 -11.3 33 +3 +3 1003.8 961.7
18 16.04 З 1 20 км 10/0
[Ac cast]
+1.2 -13.4 33 0 0 1005.8 963.2
21 16.04 С 1 50 км 10/0
[Ac und]
-0.8 -11.5 44 -2 -2 1006.7 963.8 -1.0
00 17.04 СЗ 1 50 км 10/0
[Ac und]
+4.0 -15.2 23 +4 +6 1007.0 964.8
03 17.04 С 2 50 км 10/0
[Ac As]
+5.1 -14.3 23 +4 +8 1005.3 963.3
06 17.04 СВ 3 50 км 10/0
[Ac As]
+4.8 -11.0 31 +2 +4 1002.8 960.9
09 17.04 С 4 50 км 10/0
[As trans]
+1.2 -3.0 74 -4 -4 1002.4 960.0 +5.3
12 17.04 СВ 3 20 км {ливн. осадки} 10/6 600 м
[Cb cap Ac lent]
+0.4 -1.0 90 -4 -4 1000.3 957.9
15 17.04 С 2 20 км 10/6 600 м
[Cb cap Ac lent]
+0.7 -0.6 91 -3 -3 997.4 955.2
18 17.04 С 2 20 км 10/6 600 м
[Cb cap Ac lent]
+1.8 -1.8 77 -1 -1 992.9 951.0
21 17.04 СЗ 1 50 км 10/0
[Ac und]
+2.5 -2.4 70 +1 +1 991.1 949.3 -0.1 0.6
00 18.04 С 2
{13}
10 км слаб. ливневой дождь 10/10 600 м
[Cb cap]
+2.2 -0.1 85 -1 -1 990.9 949.2
03 18.04 С 2 10 км слаб. ливневой дождь 10/10 600 м
[Cb cap]
+0.6 -0.7 91 -3 -3 993.5 951.4
06 18.04 ЮЗ 2 10 км слаб. ливневой дождь 10/10 600 м
[Cb cap]
+0.5 -0.8 91 -3 -3 996.7 954.4
09 18.04 СЗ 4
{12}
4000 м ливневой снег 10/10 600 м
[Cb cap]
-2.1 -3.9 87 -8 -8 1002.5 959.5 +4.2 11
12 18.04 З 3
{11}
20 км {ливн. осадки} 10/8 600 м
[Cb cap Ac As]
-2.4 -6.3 75 -7 -7 1005.8 962.6
15 18.04 З 3 20 км 10/8 600 м
[Cb cap Ac As]
-3.2 -6.4 79 -8 -8 1006.1 962.8
18 18.04 З 3 20 км 10/6 600 м
[Cb cap Ac As]
-3.5 -6.8 78 -9 -9 1006.1 962.8
21 18.04 З 2 50 км 8/6 1000 м
[Cb cap Ac lent Ci fib]
-4.0 -7.6 76 -8 -8 1007.4 963.9 -4.0 0.6 4
00 19.04 СЗ 4 50 км 10/3 1000 м
[Cb cap Ac lent]
-2.1 -8.6 61 -8 -7 1008.9 965.6
03 19.04 СЗ 4
{11}
50 км 10/6 600 м
[Cb cap Ac lent]
-0.3 -7.2 60 -5 -5 1010.2 967.2
06 19.04 СЗ 5-11
{11}
50 км 8/3 600 м
[Cb cap Ac lent]
+1.2 -7.8 51 -4 -3 1011.0 968.2
09 19.04 СЗ 4
{11}
50 км 8/0
[Ac lent]
+1.3 -8.2 49 -3 -3 1012.5 969.6 +1.6
12 19.04 ЮЗ 1 20 км 3/0
[Ac lent]
-1.5 -8.0 61 -3 -3 1013.8 970.4
15 19.04 СЗ 1 20 км ясно -4.2 -7.2 80 -6 -6 1014.3 970.6
18 19.04 В 1 20 км ясно -6.6 -8.6 86 -9 -9 1014.4 970.3
21 19.04 штиль 0 50 км ясно -7.5 -9.5 86 -8 -8 1013.9 969.6 -8.4
00 20.04 С 1 50 км 4/0
[Ci fib]
0.0 -6.6 61 -2 +7 1012.0 969.0
03 20.04 ЮВ 2 50 км 9/0
[Ac lent Ci fib]
+4.7 -8.8 37 +3 +11 опасность
простуды
1008.1 966.0
06 20.04 В 3 50 км 10/4 600 м
[Sc Ac lent]
+6.9 -7.2 36 +5 +6 1004.1 962.5
09 20.04 Ю 5 50 км 10/6 600 м
[Cb cap Ac lent]
+4.9 -6.4 44 +1 +1 1004.8 962.8 +8.1
12 20.04 В 2 20 км 10/4 600 м
[Cb cap Ac lent]
+3.1 -5.5 53 +1 +1 1005.7 963.4
15 20.04 В 3 20 км 3/0
[Ac lent]
+2.0 -5.5 58 -2 -2 1004.5 962.1
18 20.04 С 1 20 км 8/0
[Ac und Ci fib]
+0.7 -5.6 63 -1 -1 1005.0 962.4
21 20.04 Ю 1 50 км 3/0
[Ac lent]
-0.2 -5.5 67 -2 -1 1006.7 963.9 -2.2
00 21.04 З 5 50 км 3/0
[Ac cast]
+3.9 -9.9 36 -0 +3 1007.3 965.0
03 21.04 З 5
{12}
50 км 6/0
[Ac cast]
+5.6 -11.0 29 +2 +6 1007.8 965.7
06 21.04 З 5-10
{14}
50 км 6/3 1000 м
[Cu hum Ac cast]
+6.5 -13.1 23 +3 +6 1008.3 966.4
09 21.04 З 3
{12}
50 км 4/0
[Ac lent]
+5.2 -12.5 27 +3 +3 1010.2 968.0 +7.5
12 21.04 штиль 0 20 км ясно +0.7 -13.6 33 +1 +1 1011.8 968.9
15 21.04 штиль 0 20 км ясно -3.3 -11.0 55 -4 -4 1013.6 970.0
18 21.04 штиль 0 20 км ясно -5.7 -10.0 72 -6 -6 1015.2 971.1
21 21.04 С 1 50 км ясно -6.2 -10.1 74 -8 -8 1016.6 972.4 -7.4
00 22.04 ЮЗ 1 50 км ясно +3.9 -9.5 37 +3 +13 опасность
простуды
1015.6 973.0
03 22.04 СЗ 3 50 км ясно +9.3 -13.8 18 +8 +20 опасность
простуды
1013.9 972.2
06 22.04 СЗ 2 50 км 8/0
[Ac lent Ci fib]
+10.8 -15.6 14 +10 +16 1011.9 970.4
09 22.04 СЗ 1 50 км 6/0
[Ac lent Ci fib]
+10.5 -16.4 13 +11 +12 1010.4 969.0 +12.2
12 22.04 В 1 20 км 10/0
[Ac lent Ci fib]
+7.0 -16.4 17 +7 +7 1011.1 969.1
15 22.04 С 2 20 км 10/0
[Ac lent Ci sp]
+1.5 -12.1 36 -1 -1 1010.5 967.8
18 22.04 СВ 1 20 км 10/0
[Ac und]
+2.9 -12.6 31 +2 +2 1008.2 965.8
21 22.04 В 3 50 км 10/6 1000 м
[Cb cap Ac lent]
+4.8 -1.3 65 +2 +2 1006.3 964.3 +1.4

 

Местоположение метеостанции Сутур (Хабаровский край, Россия): широта 50.07 долгота 132.10 высота над уровнем моря 349 м.

В архиве по умолчанию представлена погода в Сутуре за последнюю неделю. Архивные данные за месяц целиком и за предыдущие месяцы, начиная с января 2011 года, Вы можете получить, выбрав интересующий диапазон дат из раскрывающегося списка и нажав кнопку "Ввод!".


*Определитесь, кто Вы:
робот инопланетянин человек

Внимание! Время в таблицах - всемирное. Для получения местного времени необходимо прибавить поправку, которая равна 10 ч.

Смотрите также архив погоды в соседних городах и на ближайших метеорологических станциях:

Погода в Сектагли (Хабаровский край, Россия) (88 км)
Погода в Чекунде (Хабаровский край, Россия) (89 км)
Погода в Верховье Урми (Хабаровский край, Россия) (100 км)
Погода в Урми (Хабаровский край, Россия) (109 км)
Погода в Чегдомыне (Хабаровский край, Россия) (135 км)
Погода в Облучье (Еврейская автономная область, Россия) (143 км)
Погода в Биробиджане (Еврейская автономная область, Россия) (160 км)
Погода в Малиновке (Амурская область, Россия) (161 км)
Погода в Архаре (Амурская область, Россия) (167 км)
Погода в Куре (Хабаровский край, Россия) (179 км)

Пояснения к столбцам:

Ветер - указаны скорость ветра в м/с - средняя за 10 мин, порывы в срок и между сроками (в фигурных скобках) и направление, откуда дует ветер: С - северный, СВ - северо-восточный, В - восточный, ЮВ - юго-восточный, Ю - южный, ЮЗ - юго-западный, З - западный, СЗ - северо-западный.
Видимость - горизонтальная дальность видимости в метрах или километрах. При видимости от 1 до 10 км при отсутствии осадков обычно наблюдается дымка, при ухудшении видимости до 1 км и менее - туман. В сухую погоду видимость может ухудшаться дымом, пылью или мглою.
Явления - указаны атмосферные явления, наблюдавшиеся в срок или в последний час перед сроком; фигурными скобками обозначены явления, наблюдавшиеся между сроками (за 1-3 часа до срока); квадратными скобками обозначены град или гололедные отложения с указанием их диаметра в мм.
Облачность - указаны через наклонную черту общая и нижняя облачность в баллах и высота нижней границы облаков в метрах; квадратными скобками обозначены формы облаков: Ci - перистые, Cs - перисто-слоистые, Cc - перисто-кучевые, Ac - высококучевые, As - высокослоистые, Sc - слоисто-кучевые, Ns - слоисто-дождевые, Cu - кучевые, Cb - кучево-дождевые. Подробнее классификацию облаков см. в Атласе облаков (PDF).
T - Температура воздуха - температура, измеренная на высоте 2 м над землей.
Td - Температура точки росы - температура, при понижении до которой содержащийся в воздухе водяной пар достигнет насыщения.
f - Относительная влажность воздуха - влажноcть воздуха, измеренная на высоте 2 м над землей.
Te - Эффективная температура - температура, которую ощущает одетый по сезону человек в тени. Характеристика душности погоды. При расчете учитывается влияние влажности воздуха и скорости ветра на теплоощущения человека.
Tes - Эффективная температура на солнце - температура, которую ощущает человек, с поправкой на солнечный нагрев. Характеристика знойности погоды. Зависит от высоты солнца над горизонтом, облачности и скорости ветра. Ночью, в пасмурную погоду, а также при ветре 12 м/с и более поправка равна нулю.
P - Атмосферное давление - приведенное к уровню моря атмосферное давление.
Po - Атмосферное давление - измеренное на уровне метеостанции атмосферное давление.
Tmin - Минимальная температура - минимум температуры воздуха на высоте 2 м над землей.
Tmax - Максимальная температура - максимум температуры воздуха на высоте 2 м над землей.
R - Количество осадков - Количество выпавших осадков за период времени, мм. При наведении курсора мыши на число - период времени, за который выпало указанное количество осадков.
R24 - Количество осадков - Количество выпавших осадков за 24 часа, мм.
S - Снежный покров - Высота снежного покрова, см. При наведении курсора мыши на число - состояние снежного покрова и степень покрытия местности в баллах.